Time,TemperatureF,DewpointF,PressureIn,WindDirection,WindDirectionDegrees,WindSpeedMPH,WindSpeedGustMPH,Humidity,HourlyPrecipIn,Conditions,Clouds,dailyrainin,SoftwareType,DateUTC
2013-01-25 00:14:00,62.3,47.0,30.12,North,352,1.0,4.0,57,0.00,,,0.00,weatherlink.com 1.10,2013-01-25 07:14:00,
2013-01-25 00:29:00,62.2,47.0,30.13,NNW,338,1.0,3.0,58,0.00,,,0.00,weatherlink.com 1.10,2013-01-25 07:29:00,
2013-01-25 00:45:00,61.7,47.0,30.13,NNE,23,1.0,2.0,59,0.00,,,0.00,weatherlink.com 1.10,2013-01-25 07:45:00,
2013-01-25 01:00:00,61.8,47.0,30.13,NE,49,0.0,3.0,58,0.00,,,0.00,weatherlink.com 1.10,2013-01-25 08:00:00,
2013-01-25 01:15:00,62.1,47.0,30.14,North,358,1.0,2.0,58,0.00,,,0.00,weatherlink.com 1.10,2013-01-25 08:15:00,
2013-01-25 01:30:00,62.9,47.0,30.13,NNW,330,0.0,4.0,57,0.00,,,0.00,weatherlink.com 1.10,2013-01-25 08:30:00,
2013-01-25 01:45:00,62.1,47.0,30.13,ENE,74,3.0,5.0,59,0.00,,,0.00,weatherlink.com 1.10,2013-01-25 08:45:00,
2013-01-25 02:00:00,63.0,47.0,30.12,NNE,29,4.0,6.0,56,0.00,,,0.00,weatherlink.com 1.10,2013-01-25 09:00:00,
2013-01-25 02:15:00,63.3,47.0,30.12,North,349,4.0,6.0,55,0.00,,,0.00,weatherlink.com 1.10,2013-01-25 09:15:00,
2013-01-25 02:30:00,63.2,47.0,30.12,NE,56,4.0,6.0,55,0.00,,,0.00,weatherlink.com 1.10,2013-01-25 09:30:00,
2013-01-25 02:45:00,63.1,47.0,30.12,NE,39,1.0,4.0,56,0.00,,,0.00,weatherlink.com 1.10,2013-01-25 09:45:00,
2013-01-25 03:00:00,62.8,47.0,30.11,NNE,25,4.0,6.0,56,0.00,,,0.00,weatherlink.com 1.10,2013-01-25 10:00:00,
2013-01-25 03:15:00,62.7,47.0,30.11,North,352,5.0,6.0,57,0.00,,,0.00,weatherlink.com 1.10,2013-01-25 10:15:00,
2013-01-25 03:30:00,62.4,47.0,30.11,NNW,331,3.0,6.0,58,0.00,,,0.00,weatherlink.com 1.10,2013-01-25 10:30:00,
2013-01-25 03:45:00,61.8,49.0,30.09,NNW,347,3.0,7.0,63,0.00,,,0.00,weatherlink.com 1.10,2013-01-25 10:45:00,
2013-01-25 04:00:00,61.5,49.0,30.09,North,353,2.0,7.0,63,0.00,,,0.00,weatherlink.com 1.10,2013-01-25 11:00:00,
2013-01-25 04:15:00,61.4,48.0,30.10,NNE,23,1.0,4.0,62,0.00,,,0.00,weatherlink.com 1.10,2013-01-25 11:15:00,
2013-01-25 04:30:00,61.4,48.0,30.09,NW,321,2.0,5.0,61,0.00,,,0.00,weatherlink.com 1.10,2013-01-25 11:30:00,
2013-01-25 04:45:00,60.5,47.0,30.10,NNW,329,0.0,3.0,62,0.00,,,0.00,weatherlink.com 1.10,2013-01-25 11:45:00,
2013-01-25 05:00:00,60.3,48.0,30.09,NNE,23,1.0,3.0,64,0.00,,,0.00,weatherlink.com 1.10,2013-01-25 12:00:00,
2013-01-25 05:15:00,60.3,48.0,30.09,NNE,22,2.0,4.0,64,0.00,,,0.00,weatherlink.com 1.10,2013-01-25 12:15:00,
2013-01-25 05:30:00,60.9,49.0,30.08,West,278,2.0,8.0,64,0.00,,,0.00,weatherlink.com 1.10,2013-01-25 12:30:00,
2013-01-25 05:45:00,61.0,48.0,30.10,NW,319,1.0,3.0,63,0.00,,,0.00,weatherlink.com 1.10,2013-01-25 12:45:00,
2013-01-25 06:00:00,60.6,49.0,30.10,North,1,2.0,3.0,65,0.00,,,0.00,weatherlink.com 1.10,2013-01-25 13:00:00,
2013-01-25 06:15:00,60.8,49.0,30.09,NE,34,3.0,5.0,66,0.00,,,0.00,weatherlink.com 1.10,2013-01-25 13:15:00,
2013-01-25 06:30:00,61.2,49.0,30.09,North,3,4.0,6.0,65,0.00,,,0.00,weatherlink.com 1.10,2013-01-25 13:30:00,
2013-01-25 06:46:00,61.2,50.0,30.09,North,5,2.0,5.0,66,0.00,,,0.00,weatherlink.com 1.10,2013-01-25 13:46:00,
2013-01-25 07:00:00,60.5,49.0,30.09,NW,310,3.0,3.0,67,0.00,,,0.00,weatherlink.com 1.10,2013-01-25 14:00:00,
2013-01-25 07:16:00,59.8,50.0,30.10,NW,315,2.0,5.0,69,0.00,,,0.00,weatherlink.com 1.10,2013-01-25 14:16:00,
2013-01-25 07:30:00,60.7,50.0,30.08,NNE,22,3.0,7.0,67,0.00,,,0.00,weatherlink.com 1.10,2013-01-25 14:30:00,
2013-01-25 07:45:00,60.5,50.0,30.09,North,3,2.0,6.0,68,0.00,,,0.00,weatherlink.com 1.10,2013-01-25 14:45:00,
2013-01-25 08:00:00,59.9,50.0,30.09,North,349,3.0,5.0,69,0.00,,,0.00,weatherlink.com 1.10,2013-01-25 15:00:00,
2013-01-25 08:15:00,60.1,50.0,30.10,NNE,18,3.0,6.0,70,0.00,,,0.00,weatherlink.com 1.10,2013-01-25 15:15:00,
2013-01-25 08:30:00,60.3,50.0,30.10,North,4,3.0,7.0,69,0.00,,,0.00,weatherlink.com 1.10,2013-01-25 15:30:00,
2013-01-25 08:45:00,60.5,50.0,30.10,NNW,347,4.0,7.0,69,0.00,,,0.00,weatherlink.com 1.10,2013-01-25 15:45:00,
2013-01-25 09:00:00,60.8,51.0,30.10,NE,47,2.0,7.0,69,0.00,,,0.00,weatherlink.com 1.10,2013-01-25 16:00:00,
2013-01-25 09:15:00,61.3,51.0,30.11,North,1,2.0,6.0,68,0.00,,,0.00,weatherlink.com 1.10,2013-01-25 16:15:00,
2013-01-25 09:30:00,61.6,50.0,30.11,North,350,2.0,8.0,67,0.00,,,0.00,weatherlink.com 1.10,2013-01-25 16:30:00,
2013-01-25 09:45:00,62.1,51.0,30.12,NNW,335,2.0,7.0,66,0.00,,,0.00,weatherlink.com 1.10,2013-01-25 16:45:00,
2013-01-25 10:00:00,62.1,51.0,30.13,NNE,22,5.0,7.0,67,0.00,,,0.00,weatherlink.com 1.10,2013-01-25 17:00:00,
2013-01-25 10:15:00,63.5,51.0,30.13,ENE,77,3.0,7.0,64,0.00,,,0.00,weatherlink.com 1.10,2013-01-25 17:15:00,
2013-01-25 10:30:00,64.2,52.0,30.12,NNE,22,5.0,10.0,64,0.00,,,0.00,weatherlink.com 1.10,2013-01-25 17:30:00,
2013-01-25 10:45:00,64.6,52.0,30.12,NE,44,10.0,10.0,63,0.00,,,0.00,weatherlink.com 1.10,2013-01-25 17:45:00,
2013-01-25 11:00:00,65.3,51.0,30.12,NNE,18,3.0,9.0,61,0.00,,,0.00,weatherlink.com 1.10,2013-01-25 18:00:00,
2013-01-25 11:15:00,65.8,51.0,30.11,NE,50,5.0,10.0,60,0.00,,,0.00,weatherlink.com 1.10,2013-01-25 18:15:00,
2013-01-25 11:30:00,66.3,51.0,30.10,NNE,19,3.0,8.0,59,0.00,,,0.00,weatherlink.com 1.10,2013-01-25 18:30:00,
2013-01-25 11:45:00,66.7,51.0,30.11,NNE,32,3.0,9.0,58,0.00,,,0.00,weatherlink.com 1.10,2013-01-25 18:45:00,
2013-01-25 12:00:00,67.4,51.0,30.10,NNE,32,5.0,7.0,57,0.00,,,0.00,weatherlink.com 1.10,2013-01-25 19:00:00,
2013-01-25 12:16:00,67.9,51.0,30.09,NE,39,4.0,8.0,56,0.00,,,0.00,weatherlink.com 1.10,2013-01-25 19:16:00,
2013-01-25 12:30:00,68.4,51.0,30.07,NW,316,2.0,8.0,54,0.00,,,0.00,weatherlink.com 1.10,2013-01-25 19:30:00,
2013-01-25 12:46:00,68.6,51.0,30.07,NNE,20,3.0,9.0,54,0.00,,,0.00,weatherlink.com 1.10,2013-01-25 19:46:00,
2013-01-25 13:01:00,68.9,51.0,30.06,NNE,30,6.0,7.0,53,0.00,,,0.00,weatherlink.com 1.10,2013-01-25 20:01:00,
2013-01-25 13:16:00,69.2,50.0,30.05,NW,324,3.0,7.0,51,0.00,,,0.00,weatherlink.com 1.10,2013-01-25 20:16:00,
2013-01-25 13:31:00,68.9,50.0,30.05,NNW,338,3.0,9.0,52,0.00,,,0.00,weatherlink.com 1.10,2013-01-25 20:31:00,
2013-01-25 13:46:00,69.0,50.0,30.04,NNW,335,4.0,9.0,52,0.00,,,0.00,weatherlink.com 1.10,2013-01-25 20:46:00,
2013-01-25 14:01:00,68.9,50.0,30.03,North,349,8.0,9.0,52,0.00,,,0.00,weatherlink.com 1.10,2013-01-25 21:01:00,
2013-01-25 14:15:00,69.2,50.0,30.03,NW,308,2.0,7.0,51,0.00,,,0.00,weatherlink.com 1.10,2013-01-25 21:15:00,
2013-01-25 14:32:00,68.8,51.0,30.02,WNW,292,4.0,6.0,54,0.00,,,0.00,weatherlink.com 1.10,2013-01-25 21:32:00,
2013-01-25 14:46:00,68.5,51.0,30.02,NNW,333,3.0,7.0,53,0.00,,,0.00,weatherlink.com 1.10,2013-01-25 21:46:00,
2013-01-25 15:01:00,68.3,52.0,30.01,NW,319,4.0,5.0,56,0.00,,,0.00,weatherlink.com 1.10,2013-01-25 22:01:00,
2013-01-25 15:16:00,67.1,53.0,30.01,NW,316,2.0,5.0,61,0.00,,,0.00,weatherlink.com 1.10,2013-01-25 22:16:00,
2013-01-25 15:31:00,66.6,54.0,30.01,NW,323,3.0,4.0,65,0.00,,,0.00,weatherlink.com 1.10,2013-01-25 22:31:00,
2013-01-25 15:46:00,66.3,55.0,30.00,North,350,1.0,3.0,67,0.00,,,0.00,weatherlink.com 1.10,2013-01-25 22:46:00,
2013-01-25 16:01:00,65.8,56.0,29.99,North,353,3.0,4.0,70,0.00,,,0.00,weatherlink.com 1.10,2013-01-25 23:01:00,
2013-01-25 16:16:00,65.5,55.0,29.99,North,8,3.0,4.0,69,0.00,,,0.00,weatherlink.com 1.10,2013-01-25 23:16:00,
2013-01-25 16:31:00,65.5,55.0,29.99,NW,326,2.0,3.0,68,0.00,,,0.00,weatherlink.com 1.10,2013-01-25 23:31:00,
2013-01-25 16:46:00,65.5,55.0,29.98,NNE,15,0.0,4.0,70,0.00,,,0.00,weatherlink.com 1.10,2013-01-25 23:46:00,
2013-01-25 17:16:00,64.5,57.0,29.97,NNW,330,2.0,4.0,76,0.00,,,0.00,weatherlink.com 1.10,2013-01-26 00:16:00,
2013-01-25 17:31:00,64.2,57.0,29.98,WNW,292,0.0,1.0,77,0.00,,,0.00,weatherlink.com 1.10,2013-01-26 00:31:00,
2013-01-25 17:46:00,64.2,56.0,29.98,North,353,0.0,1.0,75,0.00,,,0.00,weatherlink.com 1.10,2013-01-26 00:46:00,
2013-01-25 18:01:00,64.4,55.0,29.98,WNW,295,1.0,2.0,72,0.00,,,0.00,weatherlink.com 1.10,2013-01-26 01:01:00,
2013-01-25 18:16:00,63.8,56.0,29.98,WNW,283,0.0,2.0,76,0.00,,,0.00,weatherlink.com 1.10,2013-01-26 01:16:00,
2013-01-25 18:31:00,63.3,56.0,29.98,SW,236,2.0,3.0,78,0.00,,,0.00,weatherlink.com 1.10,2013-01-26 01:31:00,
2013-01-25 18:47:00,62.2,57.0,29.98,SW,217,3.0,3.0,83,0.01,,,0.01,weatherlink.com 1.10,2013-01-26 01:47:00,
2013-01-25 19:02:00,61.3,57.0,29.98,West,273,0.0,4.0,86,0.01,,,0.01,weatherlink.com 1.10,2013-01-26 02:02:00,
2013-01-25 19:17:00,60.7,57.0,29.97,NW,304,2.0,5.0,87,0.01,,,0.01,weatherlink.com 1.10,2013-01-26 02:17:00,
2013-01-25 19:32:00,60.7,57.0,29.98,WSW,243,2.0,4.0,88,0.01,,,0.01,weatherlink.com 1.10,2013-01-26 02:32:00,
2013-01-25 19:47:00,60.3,57.0,29.99,West,264,3.0,6.0,89,0.02,,,0.03,weatherlink.com 1.10,2013-01-26 02:47:00,
2013-01-25 20:02:00,59.5,57.0,29.99,West,273,4.0,7.0,90,0.04,,,0.05,weatherlink.com 1.10,2013-01-26 03:02:00,
2013-01-25 20:17:00,59.1,57.0,30.00,NW,321,2.0,12.0,91,0.04,,,0.05,weatherlink.com 1.10,2013-01-26 03:17:00,
2013-01-25 20:32:00,58.4,56.0,30.00,WNW,300,5.0,9.0,92,0.06,,,0.07,weatherlink.com 1.10,2013-01-26 03:32:00,
2013-01-25 20:47:00,58.3,56.0,29.99,NW,324,4.0,8.0,92,0.05,,,0.08,weatherlink.com 1.10,2013-01-26 03:47:00,
2013-01-25 21:02:00,58.1,56.0,29.99,NNW,328,2.0,8.0,93,0.03,,,0.08,weatherlink.com 1.10,2013-01-26 04:02:00,
2013-01-25 21:17:00,58.1,56.0,29.99,NNW,338,3.0,7.0,93,0.04,,,0.09,weatherlink.com 1.10,2013-01-26 04:17:00,
2013-01-25 21:32:00,58.0,56.0,29.98,NNW,338,5.0,7.0,93,0.03,,,0.10,weatherlink.com 1.10,2013-01-26 04:32:00,
2013-01-25 21:47:00,58.0,56.0,29.99,WNW,301,0.0,3.0,94,0.03,,,0.11,weatherlink.com 1.10,2013-01-26 04:47:00,
2013-01-25 22:02:00,58.0,56.0,29.99,North,351,2.0,3.0,94,0.05,,,0.13,weatherlink.com 1.10,2013-01-26 05:02:00,
2013-01-25 22:17:00,58.0,56.0,29.98,NE,40,2.0,4.0,94,0.08,,,0.17,weatherlink.com 1.10,2013-01-26 05:17:00,
2013-01-25 22:32:00,57.9,56.0,29.98,NW,321,1.0,4.0,94,0.09,,,0.19,weatherlink.com 1.10,2013-01-26 05:32:00,
2013-01-25 22:47:00,57.8,56.0,29.97,NNE,30,3.0,5.0,95,0.10,,,0.21,weatherlink.com 1.10,2013-01-26 05:47:00,
2013-01-25 23:02:00,57.7,56.0,29.96,NNE,30,4.0,6.0,94,0.10,,,0.23,weatherlink.com 1.10,2013-01-26 06:02:00,
2013-01-25 23:17:00,57.7,56.0,29.96,NNE,22,4.0,6.0,95,0.09,,,0.26,weatherlink.com 1.10,2013-01-26 06:17:00,
2013-01-25 23:32:00,57.8,56.0,29.96,North,6,3.0,4.0,95,0.09,,,0.28,weatherlink.com 1.10,2013-01-26 06:32:00,
2013-01-25 23:47:00,57.9,57.0,29.96,NE,44,2.0,3.0,95,0.10,,,0.31,weatherlink.com 1.10,2013-01-26 06:47:00,